Regional Weather Roundup
Issued by NWS

Home | Current Version | Previous Version | Graphics & Text | Print | Product List | Glossary On
Versions: 1 2 3 4 5 6 7 8 9 10 11 12 13 14 15 16 17 18 19 20 21 22 23 24 25 26 27 28 29 30 31 32 33 34 35 36 37 38 39 40 41 42 43 44 45 46 47 48 49 50
000
ASUS45 KSLC 221810
RWRUT

UTAH REGIONAL WEATHER ROUNDUP
NATIONAL WEATHER SERVICE SALT LAKE CITY UT
1200 PM MDT FRI AUG 22 2014

UTZ001>011-023>025-221900-

NORTHERN UTAH

CITY           SKY/WX    TMP DP  RH WIND       PRES   REMARKS
HILL AFB       PTSUNNY   75  50  41 S14       30.03S
LOGAN          LGT RAIN  64  55  72 N20       30.07R
OGDEN          PTSUNNY   71  53  52 NW9       30.01S
PROVO AIRPORT  NOT AVBL
SALT LAKE CITY PTSUNNY   76  46  34 S12       29.98S
VERNAL         MOSUNNY   71  50  47 SE6       30.10F
WENDOVER       CLOUDY    72  48  43 N9        30.00S
HEBER CITY     MOSUNNY   77  43  29 W5        30.05F
WEST JORDAN    PTSUNNY   77  54  44 SE13G18   30.01F

$$

UTZ012>022-026-027-221900-

SOUTHERN UTAH

CITY           SKY/WX    TMP DP  RH WIND       PRES   REMARKS
BRYCE CANYON   CLOUDY    60  48  64 SE10      30.26S
CEDAR CITY     SUNNY     73  47  39 SW12G21   30.13F
MILFORD        SUNNY     77  47  34 S22G30    30.08R
MOAB/CYNLANDS  CLOUDY    75  48  38 W3        30.06F
PRICE          CLOUDY    70  43  37 S8        30.14F
ST GEORGE      PTCLDY    79  52  38 CALM      30.04F
KANAB            N/A     72  54  53 SW8       30.17F

$$

REGIONAL REPORTS     COLORADO/ARIZONA

CITY           SKY/WX    TMP DP  RH WIND       PRES   REMARKS
CRAIG, CO      CLOUDY    73  46  38 NE3       30.14F
GRAND JUNCTION PTSUNNY   77  50  38 SE12G17   30.09F
RIFLE          CLOUDY    70  49  47 NE8       30.13F
MONTROSE       CLOUDY    67  54  63 VRB3      30.19F
CORTEZ         PTSUNNY   70  53  54 VRB6      30.20F
PAGE, AZ       SUNNY     76  54  46 VRB3      30.10F
GRAND CANYON   MOSUNNY   63  52  67 SW12      30.26S
KINGMAN        SUNNY     76  57  51 W5        30.08S
FLAGSTAFF      CLOUDY    61  50  67 S9        30.28F

$$

REGIONAL REPORTS    NEVADA/IDAHO/WYOMING

CITY           SKY/WX    TMP DP  RH WIND       PRES   REMARKS
LAS VEGAS, NV  SUNNY     84  53  34 VRB3      29.95F
ELY            MOSUNNY   74  42  31 SE10      30.10F
ELKO           PTSUNNY   74  41  30 SW9       30.01F
POCATELLO, ID  PTSUNNY   58  53  84 E8        30.05R
BURLEY         CLOUDY    64  56  75 NE7       29.98R
EVANSTON, WY   PTSUNNY   60  46  59 E5        30.16F
ROCK SPRINGS   MOSUNNY   70  44  39 VRB7      30.13F

$$


USA.gov is the U.S. government's official web portal to all federal, state and local government web resources and services.